Location: Tel Aviv
(32.0670°N, 34.7670°E)
Time: 02:57:36
(UTC+03:00)

Tiros 1 - Pass Details

Date: 19 January 2022
Orbit: 629 x 663 km, 48.4° (Epoch: 26 May)

Event Time Altitude Azimuth Distance (km) Brightness Sun altitude
Rises 22:33:04 0° 203° (SSW) 2,978 - -68.8°
Reaches altitude 10° 22:35:37 10° 193° (SSW) 2,069 - -69.2°
Maximum altitude 22:39:48 30° 132° (SE) 1,168 - -70.0°
Drops below altitude 10° 22:43:59 10° 71° (ENE) 2,072 - -70.7°
Sets 22:46:32 0° 61° (ENE) 2,983 - -71.2°
